TimeCEST,TemperatureF,Dew PointF,Humidity,Sea Level PressureIn,VisibilityMPH,Wind Direction,Wind SpeedMPH,Gust SpeedMPH,PrecipitationIn,Events,Conditions,WindDirDegrees,DateUTC
12:55 AM,42.8,41.0,93,29.50,0.0,SW,32.2,-,N/A,Fog,Fog,230,2012-10-26 22:55:00
1:55 AM,42.8,41.0,93,29.47,0.0,SW,38.0,-,N/A,Fog,Fog,230,2012-10-26 23:55:00
2:00 AM,43,41,90,,0,SW,38.0,,,Fog,Heavy Fog,230,2012-10-27 00:00:00
2:55 AM,42.8,41.0,93,29.47,0.0,SW,34.5,-,N/A,Fog-Rain,Rain,230,2012-10-27 00:55:00
3:55 AM,42.8,41.0,93,29.44,0.0,SW,31.1,-,N/A,Fog,Fog,230,2012-10-27 01:55:00
4:55 AM,42.8,41.0,93,29.39,0.0,SW,33.4,-,N/A,Fog-Rain,Light Rain,230,2012-10-27 02:55:00
5:55 AM,41.0,41.0,100,29.39,0.0,SW,32.2,-,N/A,Fog-Rain,Light Rain,230,2012-10-27 03:55:00
6:55 AM,41.0,41.0,100,29.36,0.0,SW,29.9,-,N/A,Fog-Rain,Light Rain,230,2012-10-27 04:55:00
7:55 AM,41.0,39.2,93,29.36,0.0,SW,32.2,-,N/A,Fog-Rain,Light Rain,230,2012-10-27 05:55:00
8:00 AM,41,39,89,,0,SW,32.2,,,Rain,Light Rain,230,2012-10-27 06:00:00
8:55 AM,41.0,39.2,93,29.30,0.0,SW,34.5,-,N/A,Fog-Rain,Light Rain,230,2012-10-27 06:55:00
9:55 AM,41.0,39.2,93,29.27,0.0,SW,32.2,-,N/A,Fog-Rain,Light Rain,230,2012-10-27 07:55:00
10:55 AM,41.0,39.2,93,29.27,0.0,Calm,Calm,-,N/A,Fog-Rain,Light Rain,220,2012-10-27 08:55:00
11:55 AM,41.0,39.2,93,29.27,0.0,SW,34.5,-,N/A,Fog-Rain,Light Rain,220,2012-10-27 09:55:00
12:55 PM,41.0,39.2,93,29.24,0.0,SW,34.5,-,N/A,Fog-Rain,Light Rain,220,2012-10-27 10:55:00
1:55 PM,41.0,39.2,93,29.24,0.0,SW,34.5,-,N/A,Fog-Rain,Light Rain,230,2012-10-27 11:55:00
2:00 PM,41,40,94,,0,SW,34.5,,,Rain,Light Rain,230,2012-10-27 12:00:00
2:55 PM,41.0,41.0,100,29.24,0.0,SW,31.1,-,N/A,Fog,Fog,230,2012-10-27 12:55:00
3:55 PM,41.0,41.0,100,29.21,0.0,SW,32.2,-,N/A,Fog,Fog,230,2012-10-27 13:55:00
4:55 PM,41.0,41.0,100,29.24,0.0,SW,35.7,-,N/A,Fog,Fog,230,2012-10-27 14:55:00
5:55 PM,41.0,39.2,93,29.24,0.0,SW,36.8,-,N/A,Fog,Fog,230,2012-10-27 15:55:00
6:55 PM,39.2,37.4,93,29.21,0.0,SW,33.4,-,N/A,Fog,Fog,230,2012-10-27 16:55:00
7:55 PM,37.4,37.4,100,29.21,0.0,SW,32.2,-,N/A,Fog,Fog,230,2012-10-27 17:55:00
8:00 PM,38,37,97,,0,SW,32.2,,,Fog,Heavy Fog,230,2012-10-27 18:00:00
8:55 PM,37.4,37.4,100,29.21,0.0,SW,34.5,-,N/A,Fog,Fog,230,2012-10-27 18:55:00
9:55 PM,37.4,37.4,100,29.21,0.0,SW,34.5,-,N/A,Fog,Fog,230,2012-10-27 19:55:00
10:55 PM,37.4,37.4,100,29.21,0.0,SW,34.5,-,N/A,Fog,Fog,230,2012-10-27 20:55:00
11:55 PM,37.4,37.4,100,29.21,0.0,SW,34.5,-,N/A,Fog,Fog,230,2012-10-27 21:55:00